When you browse on this site, cookies collect data to enhance your experience and personalize the content and advertising you see.
Visit our Privacy Policy to learn more. By continuing to use the site, you agree to this use of cookies and data.
  • In Austria
  • List of Countries
  • For 7 days
  • Water Temperature
  • Weather Map
  • News
  • Weather Widgets
  • user-avatar
    Login

    Hourly Weather Salta

    Today, 5 December, Thursday

    Time Temperature Precipitation Wind Pressure Humidity
    00:00 +15°C° 0 mm 1 mps 652 mmHg 94%
    01:00 +15°C° 0 mm 1 mps 652 mmHg 93%
    02:00 +14°C° 0 mm 1 mps 652 mmHg 92%
    03:00 +15°C° 0 mm 1 mps 652 mmHg 92%
    04:00 +15°C° 0 mm 1 mps 652 mmHg 92%
    05:00 +15°C° 0 mm 1 mps 652 mmHg 93%
    06:00 +15°C° 0 mm 1 mps 653 mmHg 90%
    07:00 +16°C° 0 mm 1 mps 653 mmHg 87%
    08:00 +16°C° 0 mm 1 mps 654 mmHg 84%
    09:00 +19°C° 0 mm 1 mps 654 mmHg 75%
    10:00 +21°C° 0 mm 1 mps 654 mmHg 66%
    11:00 +23°C° 0 mm 1 mps 654 mmHg 57%
    12:00 +24°C° 0 mm 2 mps 653 mmHg 55%
    13:00 +24°C° 0 mm 2 mps 652 mmHg 53%
    14:00 +25°C° 0 mm 2 mps 652 mmHg 51%
    15:00 +24°C° 0 mm 2 mps 651 mmHg 52%
    16:00 +24°C° 0 mm 2 mps 651 mmHg 54%
    17:00 +23°C° 0 mm 2 mps 650 mmHg 56%
    18:00 +21°C° 0 mm 2 mps 650 mmHg 62%
    19:00 +20°C° 0 mm 1 mps 650 mmHg 68%
    20:00 +19°C° 0 mm 1 mps 650 mmHg 74%
    21:00 +18°C° 0 mm 1 mps 650 mmHg 75%
    22:00 +16°C° 0 mm 0 mps 650 mmHg 76%
    23:00 +15°C° 0 mm 0 mps 650 mmHg 77%

    Tomorrow, 6 December, Friday

    Time Temperature Precipitation Wind Pressure Humidity
    00:00 +15°C° 0 mm 0 mps 650 mmHg 78%
    01:00 +15°C° 0 mm 0 mps 650 mmHg 78%
    02:00 +15°C° 0 mm 0 mps 649 mmHg 79%
    03:00 +14°C° 0 mm 0 mps 649 mmHg 80%
    04:00 +14°C° 0 mm 0 mps 649 mmHg 81%
    05:00 +14°C° 0 mm 0 mps 649 mmHg 81%
    06:00 +18°C° 0 mm 1 mps 650 mmHg 75%
    07:00 +20°C° 0 mm 1 mps 651 mmHg 68%
    08:00 +22°C° 0 mm 1 mps 652 mmHg 62%
    09:00 +23°C° 0 mm 1 mps 652 mmHg 58%
    10:00 +25°C° 0 mm 2 mps 652 mmHg 55%
    11:00 +26°C° 0 mm 3 mps 652 mmHg 51%
    12:00 +26°C° 0 mm 3 mps 651 mmHg 50%
    13:00 +27°C° 0 mm 3 mps 651 mmHg 49%
    14:00 +27°C° 0 mm 3 mps 651 mmHg 49%
    15:00 +27°C° 0 mm 2 mps 650 mmHg 50%
    16:00 +26°C° 0 mm 2 mps 649 mmHg 52%
    17:00 +26°C° 0 mm 2 mps 649 mmHg 54%
    18:00 +25°C° 0 mm 1 mps 649 mmHg 59%
    19:00 +23°C° 0 mm 1 mps 650 mmHg 65%
    20:00 +22°C° 0 mm 1 mps 650 mmHg 71%
    21:00 +22°C° 0 mm 1 mps 651 mmHg 72%
    22:00 +21°C° 0 mm 1 mps 651 mmHg 72%
    23:00 +21°C° 0 mm 1 mps 651 mmHg 73%

    Day after tomorrow, 7 December, Saturday

    Time Temperature Precipitation Wind Pressure Humidity
    00:00 +21°C° 0 mm 1 mps 651 mmHg 74%
    01:00 +21°C° 0 mm 1 mps 651 mmHg 75%
    02:00 +18°C° 0 mm 0 mps 651 mmHg 76%
    03:00 +18°C° 0 mm 0 mps 650 mmHg 77%
    04:00 +17°C° 0 mm 0 mps 650 mmHg 79%
    05:00 +17°C° 0 mm 0 mps 650 mmHg 80%
    06:00 +20°C° 0 mm 1 mps 651 mmHg 75%
    07:00 +22°C° 0 mm 1 mps 651 mmHg 71%
    08:00 +23°C° 0 mm 1 mps 652 mmHg 66%
    09:00 +24°C° 0.1 mm 2 mps 651 mmHg 65%
    10:00 +25°C° 0.1 mm 3 mps 651 mmHg 63%
    11:00 +26°C° 0.1 mm 3 mps 651 mmHg 62%
    12:00 +26°C° 0.5 mm 3 mps 650 mmHg 62%
    13:00 +26°C° 0.5 mm 3 mps 649 mmHg 62%
    14:00 +26°C° 0.5 mm 3 mps 648 mmHg 62%
    15:00 +26°C° 0.3 mm 3 mps 648 mmHg 64%
    16:00 +25°C° 0.3 mm 3 mps 648 mmHg 66%
    17:00 +25°C° 0.3 mm 3 mps 647 mmHg 68%
    18:00 +24°C° 0.3 mm 2 mps 647 mmHg 73%
    19:00 +23°C° 0.3 mm 2 mps 648 mmHg 77%
    20:00 +22°C° 0.3 mm 1 mps 648 mmHg 82%
    21:00 +21°C° 0.1 mm 1 mps 649 mmHg 82%
    22:00 +21°C° 0.1 mm 1 mps 649 mmHg 83%
    23:00 +21°C° 0.1 mm 1 mps 649 mmHg 83%

    8 December, Sunday

    Time Temperature Precipitation Wind Pressure Humidity
    00:00 +20°C° 0 mm 1 mps 649 mmHg 83%
    01:00 +20°C° 0 mm 1 mps 649 mmHg 83%
    02:00 +20°C° 0 mm 1 mps 649 mmHg 83%
    03:00 +20°C° 0 mm 1 mps 649 mmHg 83%
    04:00 +19°C° 0 mm 1 mps 649 mmHg 82%
    05:00 +19°C° 0 mm 1 mps 649 mmHg 82%
    06:00 +21°C° 0 mm 1 mps 649 mmHg 77%
    07:00 +22°C° 0 mm 1 mps 650 mmHg 73%
    08:00 +23°C° 0 mm 1 mps 651 mmHg 68%
    09:00 +25°C° 0 mm 1 mps 651 mmHg 63%
    10:00 +26°C° 0 mm 2 mps 651 mmHg 58%
    11:00 +28°C° 0 mm 2 mps 651 mmHg 52%
    12:00 +28°C° 0.2 mm 2 mps 651 mmHg 51%
    13:00 +29°C° 0.2 mm 1 mps 650 mmHg 49%
    14:00 +30°C° 0.2 mm 1 mps 650 mmHg 47%
    15:00 +29°C° 0.3 mm 1 mps 649 mmHg 49%
    16:00 +28°C° 0.3 mm 1 mps 649 mmHg 50%
    17:00 +27°C° 0.3 mm 1 mps 648 mmHg 52%
    18:00 +26°C° 0.5 mm 1 mps 649 mmHg 60%
    19:00 +24°C° 0.5 mm 1 mps 649 mmHg 68%
    20:00 +21°C° 0.5 mm 2 mps 649 mmHg 77%
    21:00 +21°C° 1 mm 2 mps 650 mmHg 80%
    22:00 +21°C° 1 mm 1 mps 650 mmHg 83%
    23:00 +20°C° 1 mm 1 mps 650 mmHg 86%

    9 December, Monday

    Time Temperature Precipitation Wind Pressure Humidity
    00:00 +20°C° 0.4 mm 1 mps 650 mmHg 85%
    01:00 +20°C° 0.4 mm 1 mps 650 mmHg 84%
    02:00 +20°C° 0.4 mm 1 mps 650 mmHg 83%
    03:00 +20°C° 0 mm 1 mps 650 mmHg 82%
    04:00 +19°C° 0 mm 1 mps 650 mmHg 82%
    05:00 +19°C° 0 mm 1 mps 649 mmHg 82%
    06:00 +21°C° 0 mm 1 mps 650 mmHg 76%
    07:00 +23°C° 0 mm 1 mps 651 mmHg 70%
    08:00 +25°C° 0 mm 1 mps 652 mmHg 64%
    09:00 +26°C° 0.2 mm 1 mps 652 mmHg 59%
    10:00 +27°C° 0.2 mm 2 mps 652 mmHg 54%
    11:00 +28°C° 0.2 mm 3 mps 652 mmHg 49%
    12:00 +29°C° 0.4 mm 3 mps 651 mmHg 49%
    13:00 +29°C° 0.4 mm 3 mps 650 mmHg 48%
    14:00 +29°C° 0.4 mm 3 mps 650 mmHg 48%
    15:00 +28°C° 0.2 mm 2 mps 649 mmHg 52%
    16:00 +27°C° 0.2 mm 2 mps 648 mmHg 56%
    17:00 +26°C° 0.2 mm 2 mps 647 mmHg 60%
    18:00 +25°C° 0.1 mm 2 mps 648 mmHg 64%
    19:00 +24°C° 0.1 mm 1 mps 648 mmHg 67%
    20:00 +23°C° 0.1 mm 1 mps 649 mmHg 70%
    21:00 +23°C° 0.5 mm 1 mps 649 mmHg 73%
    22:00 +22°C° 0.5 mm 1 mps 649 mmHg 76%
    23:00 +22°C° 0.5 mm 1 mps 650 mmHg 79%

    10 December, Tuesday

    Time Temperature Precipitation Wind Pressure Humidity
    00:00 +21°C° 0.1 mm 1 mps 649 mmHg 82%
    01:00 +19°C° 0.1 mm 0 mps 649 mmHg 84%
    02:00 +18°C° 0.1 mm 0 mps 649 mmHg 87%
    03:00 +18°C° 0 mm 0 mps 649 mmHg 87%
    04:00 +18°C° 0 mm 0 mps 649 mmHg 86%
    05:00 +19°C° 0 mm 1 mps 649 mmHg 86%
    06:00 +21°C° 0 mm 1 mps 650 mmHg 80%
    07:00 +23°C° 0 mm 1 mps 650 mmHg 74%
    08:00 +25°C° 0 mm 1 mps 651 mmHg 68%
    09:00 +27°C° 0.1 mm 1 mps 651 mmHg 61%
    10:00 +29°C° 0.1 mm 1 mps 652 mmHg 54%
    11:00 +31°C° 0.1 mm 2 mps 652 mmHg 47%
    12:00 +31°C° 0.3 mm 2 mps 652 mmHg 46%
    13:00 +32°C° 0.3 mm 2 mps 651 mmHg 44%
    14:00 +32°C° 0.3 mm 2 mps 651 mmHg 42%
    15:00 +31°C° 0.4 mm 2 mps 650 mmHg 47%
    16:00 +30°C° 0.4 mm 2 mps 649 mmHg 52%
    17:00 +29°C° 0.4 mm 2 mps 649 mmHg 57%
    18:00 +26°C° 1.2 mm 1 mps 649 mmHg 68%
    19:00 +24°C° 1.2 mm 1 mps 648 mmHg 79%
    20:00 +21°C° 1.2 mm 1 mps 648 mmHg 90%
    21:00 +21°C° 1.2 mm 1 mps 649 mmHg 89%
    22:00 +21°C° 1.2 mm 1 mps 650 mmHg 88%
    23:00 +21°C° 1.2 mm 1 mps 651 mmHg 87%
    Show more